Погода в Михайловке

Россия / Оренбургская область     53°40′30″N   52°27′48″E
темп.,
°C
ветер,
м/с
пор.,
м/с
влажн.,
%
обл.,
%
осадки,
мм/ч
давл.,
гПа
погр.,
м
16 мая, пн
пн1623:00+11ююв228298 0.9 100123
02:00+10зюз51296100 0.8 1001499
05:00+9ююз4895100 4.3 1000458
08:00+10ююз4790100 0.1 999395
11:00+10юз588986 0.8 999611
14:00+10з71091100 1.1 1000588
17:00+14зсз686757 1.3 10011358
20:00+13з3576100 0.8 1001169
17 мая, вт
вт1723:00+9ююз2283100 0.9 100222
02:00+8ююз228868 0.8 100127
05:00+7ююз339119 0.8 100135
08:00+9юз479093 0.6 1001371
11:00+12юз687635 1.5 1002970
14:00+13зюз796768 2.1 10021539
17:00+13зюз7106314 3.1 10031510
20:00+11зюз487315 1.2 1003410
18 мая, ср
ср1823:00+8ююз3483100 1.7 100360
02:00+6ю359072 0.2 100286
05:00+6ю379374 0.9 1001160
08:00+8юз47845 0.1 1002331
11:00+11юз5672100 0.7 1001987
14:00+10юз5678100 1.7 10021070
17:00+11зюз446993 2.6 1002992
20:00+10зюз4784100 1.7 1003436
19 мая, чт
чт1923:00+7з369188 2.1 1004185
02:00+6ссз479116 0.1 1006393
05:00+3зсз22935 0.1 100729
08:00+7з12825 0.0 1008249
11:00+10зюз347294 0.1 10081042
14:00+7зсз4591100 1.7 1008323
17:00+7сз2490100 2.7 1009365
20:00+9сз2480100 0.0 1008671
20 мая, пт
пт2023:00+5ю11898 0.0 100910
02:00+4ююв1191100 0.0 100810
05:00+6св1191100 0.1 100729
08:00+6ссв1197100 3.3 100694
11:00+5с5795100 8.0 1006433
14:00+6с61090100 5.7 1006835
17:00+8с5875100 6.7 10061205
20:00+8сз6107591 0.5 1007628